Location: Unspecified
(0.0000°N, 0.0000°E)
Time: 18:57:17
(UTC+00:00)

Vanguard 2 - Pass Details

Date: 18 April 2026
Orbit: 553 x 2895 km, 32.9° (Epoch: 17 May)

Event Time Altitude Azimuth Distance (km) Brightness Sun altitude
Rises 20:42:54 0° 279° (W) 4,743 12.5 -40.0°
Reaches altitude 10° 20:45:57 10° 271° (W) 4,057 11.8 -40.7°
Maximum altitude 20:56:28 39° 206° (SSW) 3,170 10.5 -43.3°
Enters shadow 20:59:02 37° 187° (S) 3,398 10.5 -43.9°
